Wind_Gust
7 6 6 7 6 9 8 9 9 11 10 16 16 11 24 13 22 24 10 6 20 9 14 9 13 14 14 10 19 20 18 11 4 8 13 15 21 25 28 25 22 21 21 17 16 17 18 20 21 22 22 23 22 22 22 23 23 21 22 21 21 19 20 21 21 21 20 19 19 18 18 18 17 17 17 18 18 16 15 16 17 18 17 17 18 17 18 19 20 21 21 21 19 18 16 15 13
7 7 7 8 9 5 8 8 10 5 9 13 23 11 26 15 13 8 14 22 13 8 6 10 13 7 10 19 23 23 21 15 14 20 21 25 22 24 24 24 22 23 18 17 16 16 16 20 21 21 23 24 23 23 22 23 22 23 22 20 20 21 21 20 20 20 20 18 18 19 19 17 16 16 17 18 17 15 10 14 17 17 16 17 16 16 17 17 18 19 20 20 20 19 17 14 12
6 8 8 9 11 10 12 7 10 5 8 18 20 20 22 5 9 15 18 21 15 9 10 4 5 5 7 20 19 17 8 14 21 17 27 25 26 16 21 22 21 21 20 17 16 15 15 18 21 21 24 23 22 23 22 22 22 22 21 20 20 20 20 19 19 19 19 18 18 18 18 17 16 17 18 17 16 13 10 14 18 16 15 16 16 16 16 16 16 17 18 19 19 18 17 14 10
6 7 7 5 9 8 7 8 8 12 11 15 19 12 7 7 8 17 15 13 10 2 4 9 10 6 19 21 23 18 17 16 15 17 23 17 22 22 23 21 20 19 18 17 16 15 14 18 20 21 23 23 22 22 22 22 23 22 21 20 21 19 18 18 18 17 18 18 18 17 17 18 17 17 17 17 15 12 9 13 14 16 15 15 15 15 15 15 16 16 17 18 18 17 16 14 10
6 7 7 10 9 8 8 9 11 10 21 16 12 9 12 11 9 11 13 6 8 4 3 6 15 17 21 17 10 13 12 13 15 10 22 25 23 22 22 21 19 18 18 17 16 15 15 19 21 21 22 23 22 22 22 22 22 22 22 20 19 19 18 17 17 16 17 17 17 16 16 17 17 16 15 15 13 10 11 14 13 14 13 14 13 12 12 13 15 16 16 17 16 15 14 12 9
10 8 8 9 12 11 14 10 12 15 22 13 15 4 10 16 14 5 3 5 8 5 4 5 6 8 17 14 15 9 5 9 17 15 23 21 28 23 21 19 18 19 17 17 17 15 16 19 20 21 22 23 22 22 22 22 23 22 21 20 19 18 17 17 17 16 16 16 16 15 15 17 17 16 15 14 12 14 13 13 13 13 14 14 13 13 14 15 16 16 15 14 13 12 11 9 8
7 4 9 9 15 8 7 9 13 15 27 17 23 6 11 9 9 7 8 7 8 5 6 5 21 21 22 20 23 22 15 13 17 19 20 23 22 22 21 20 19 19 19 18 17 16 17 18 19 21 21 21 23 22 22 22 22 21 20 19 18 17 17 17 16 16 16 15 15 14 15 16 16 16 14 14 14 15 13 12 13 14 13 12 14 15 16 16 15 15 14 13 12 10 9 7 9
8 4 7 10 10 11 9 13 17 17 22 15 7 8 7 6 5 4 6 4 6 7 7 3 10 27 13 11 17 15 21 25 25 24 27 23 20 18 18 17 20 19 20 18 16 16 20 18 18 20 21 20 22 20 21 22 21 21 19 17 17 17 16 16 14 14 13 14 15 14 15 16 16 15 14 13 15 14 13 14 15 14 12 15 15 15 15 15 15 14 14 13 11 10 9 9 9
9 10 9 8 10 15 10 15 22 18 22 24 7 8 7 4 10 4 6 6 5 4 7 8 16 25 13 20 17 14 24 20 22 18 20 20 17 15 16 18 20 18 18 19 19 16 15 18 18 19 20 21 21 21 21 21 20 19 18 17 16 15 14 14 14 14 12 12 12 13 16 15 15 14 12 12 14 14 13 15 14 14 14 15 15 14 14 14 14 14 13 12 11 10 10 10 9
11 12 9 11 6 12 13 18 15 19 22 12 11 9 5 8 5 4 4 8 9 4 10 13 16 24 19 23 15 8 16 19 16 16 13 13 14 14 18 18 18 20 19 20 20 17 15 22 18 18 19 19 20 20 19 18 18 17 16 16 15 14 14 13 12 12 11 11 11 12 13 14 14 13 11 12 14 13 15 15 15 15 15 15 14 14 13 14 14 13 13 12 11 11 10 9 10
14 16 11 10 9 12 14 17 17 19 18 8 11 10 8 2 7 11 6 6 5 8 8 29 26 22 18 11 12 8 16 18 19 12 6 7 11 18 20 18 19 20 22 19 19 17 16 17 23 18 18 18 18 17 17 16 16 16 16 16 15 15 13 13 12 13 11 11 11 12 13 13 13 13 14 13 13 14 14 15 15 16 14 14 14 13 13 14 14 13 12 10 10 10 9 8 9
12 13 13 8 13 12 14 16 17 16 7 8 11 12 2 5 4 4 6 6 5 5 9 11 20 28 18 12 9 13 15 16 16 11 3 4 16 18 20 20 22 21 20 20 19 17 15 15 17 21 19 18 17 16 15 15 16 16 16 15 15 15 14 13 12 12 11 10 10 10 12 13 14 14 12 12 12 14 15 15 15 15 14 13 13 13 13 13 13 12 11 10 10 9 8 7 6
15 10 7 12 12 10 16 16 14 14 7 15 9 9 7 3 6 13 10 11 11 12 11 19 30 18 10 9 11 13 16 13 17 12 8 8 15 18 19 24 23 20 18 19 21 18 17 15 16 17 17 20 17 15 15 15 15 15 15 15 15 15 15 14 13 12 11 10 10 11 11 11 11 12 13 14 14 15 15 15 14 14 13 12 12 12 12 13 12 12 10 10 9 8 7 6 6
15 12 9 13 9 13 15 15 15 9 10 5 5 2 9 9 12 12 8 7 10 17 16 20 20 25 17 16 12 12 15 15 19 12 13 10 17 18 19 22 20 20 17 17 21 19 17 16 16 16 18 16 15 16 15 15 14 15 14 14 15 14 13 13 12 12 12 11 11 11 11 10 11 10 12 13 14 15 15 14 14 13 12 12 11 11 12 12 11 11 10 10 9 7 6 5 6
15 10 13 12 15 11 12 16 16 7 7 5 10 4 4 7 9 7 6 10 8 22 19 16 19 15 17 15 12 16 17 19 18 16 9 11 17 18 17 20 19 19 18 19 21 19 19 18 18 16 16 15 15 13 12 17 18 17 15 15 14 13 13 14 13 12 13 11 11 12 12 13 12 11 11 12 13 14 15 13 13 13 11 11 11 10 10 10 10 10 9 9 9 6 5 3 5
15 11 12 11 12 9 18 16 13 8 6 2 6 8 6 7 11 6 4 8 4 9 15 16 13 12 20 14 20 23 21 20 19 15 15 10 16 17 19 19 20 20 17 18 19 18 19 19 17 18 17 16 14 14 14 15 19 19 17 16 16 15 15 14 13 12 13 12 13 13 13 11 11 10 13 12 13 13 13 11 13 12 11 10 10 10 10 10 10 9 8 7 7 6 4 3 4
10 11 11 10 15 12 13 9 10 14 5 12 15 13 11 9 4 9 7 2 7 12 22 20 19 12 12 18 23 24 22 19 16 17 13 13 20 17 15 17 19 17 17 18 16 18 18 19 17 16 16 17 15 16 16 16 19 21 18 19 19 17 15 15 14 13 12 11 11 10 9 7 6 6 8 6 12 10 9 12 12 13 11 9 9 8 8 9 9 9 7 6 6 5 3 3 4
9 14 12 14 15 16 14 9 6 4 10 6 9 5 6 10 14 6 4 6 6 18 26 26 22 19 23 25 26 26 22 22 21 20 16 18 18 19 17 16 20 20 20 20 17 17 18 17 18 16 17 17 17 18 18 18 19 19 15 15 14 14 14 13 11 10 10 7 11 9 6 6 6 5 6 10 6 9 11 13 12 11 10 8 7 6 6 6 8 7 6 6 5 5 4 1 3
11 10 12 20 12 19 9 8 4 6 3 7 3 11 11 6 5 8 9 5 10 18 24 25 21 21 21 22 24 22 20 17 17 16 18 18 19 19 18 17 17 18 21 18 18 19 17 17 16 16 15 15 15 12 16 17 17 16 15 15 14 13 12 11 9 10 8 8 7 7 5 4 6 6 5 9 8 9 10 13 12 11 10 8 6 5 5 5 6 6 6 5 4 4 2 4 2
11 9 14 17 15 21 23 10 10 10 8 12 10 6 4 6 9 7 7 10 9 18 22 17 23 18 20 21 22 21 17 17 15 16 17 18 18 19 17 16 16 13 17 17 17 16 17 15 14 15 15 15 15 15 15 13 13 14 15 14 13 12 12 12 9 10 9 7 9 6 7 6 5 6 10 14 12 8 8 10 11 10 9 7 5 4 3 3 4 4 4 5 3 3 5 6 4
12 15 20 18 11 13 14 9 8 11 9 11 8 12 13 7 3 8 12 13 9 11 22 24 20 22 21 21 22 20 18 17 15 14 15 17 18 19 18 16 17 15 13 14 15 16 12 13 14 13 13 16 15 16 16 15 13 15 14 15 13 12 12 12 11 10 10 8 7 7 7 6 7 8 7 5 8 7 5 5 5 3 3 3 4 1 2 1 3 1 4 4 3 6 6 7 6
8 17 19 18 17 19 11 15 10 12 9 4 2 7 11 10 4 4 6 13 6 6 21 17 19 17 20 20 20 19 19 18 15 15 15 16 20 21 18 16 13 10 13 18 16 15 12 13 14 13 13 12 14 15 16 16 15 11 11 14 13 12 11 11 11 11 11 11 10 9 8 8 7 8 8 7 8 7 6 5 6 4 4 4 4 3 4 3 3 3 3 6 8 7 6 7 8
17 14 13 12 12 15 11 9 7 5 7 4 7 6 12 6 8 6 8 8 9 13 23 23 23 23 19 15 18 18 17 18 15 15 17 16 17 16 21 22 20 18 14 16 15 13 13 13 13 13 14 12 11 11 11 12 11 9 10 8 10 9 10 12 11 11 12 12 10 9 9 8 8 9 9 4 7 6 6 7 8 7 6 7 7 6 5 5 7 7 5 6 7 6 5 4 7
12 17 8 13 13 18 13 15 7 7 6 6 8 6 8 7 7 4 8 13 21 16 20 17 19 19 22 20 13 14 14 16 16 15 15 14 14 10 21 22 19 16 17 17 14 14 15 15 12 13 13 12 11 10 13 13 11 12 11 13 12 10 10 11 9 10 11 13 10 9 8 8 9 9 9 5 7 4 7 8 8 8 7 9 7 8 6 7 9 7 7 6 7 8 6 4 8
16 21 12 17 16 11 9 7 5 3 5 5 8 10 9 6 5 7 10 19 19 17 16 15 14 15 16 17 18 16 14 14 15 14 9 9 14 16 14 16 20 20 19 17 19 21 12 13 12 15 15 13 11 12 13 12 11 11 10 12 10 11 10 11 9 9 11 13 11 10 8 9 7 7 5 7 7 4 6 8 10 10 8 8 9 11 9 9 9 10 12 9 10 3 2 5 17
13 11 9 11 13 8 8 8 6 3 3 2 5 8 8 11 9 11 14 16 21 20 19 18 15 17 15 14 15 15 14 15 16 13 17 12 17 17 18 20 20 18 19 23 19 20 22 20 16 16 17 17 15 13 13 13 12 12 10 12 11 11 9 10 9 8 9 13 12 10 9 8 7 7 5 6 8 4 2 4 2 3 10 11 9 12 9 9 9 3 3 3 2 3 11 14 18
14 11 15 17 14 11 8 9 6 5 7 6 10 7 10 8 10 12 8 16 21 19 17 14 17 16 13 13 12 13 14 14 15 13 12 14 13 23 17 20 21 22 24 22 25 20 20 18 16 17 16 15 15 15 13 13 12 12 11 11 11 10 8 10 8 8 9 12 12 10 9 8 7 6 6 4 5 7 5 7 6 9 11 3 10 5 3 5 4 5 5 5 6 18 20 18 10
11 6 11 10 8 7 7 10 11 1 6 3 6 10 8 9 6 10 12 20 24 22 20 18 15 16 15 14 12 9 10 11 12 13 15 13 17 18 18 17 20 23 24 23 22 19 20 19 18 15 16 18 16 15 15 14 13 12 12 11 10 9 8 7 7 7 10 11 12 11 9 8 7 7 6 5 5 6 5 6 5 7 7 16 7 4 3 3 2 3 3 3 12 23 24 11 6
12 12 11 4 7 18 11 15 12 6 10 6 5 9 11 11 14 10 13 22 24 21 20 18 15 15 12 13 14 11 11 18 28 25 20 23 24 19 23 20 24 23 17 23 23 23 25 21 21 18 15 15 16 16 16 13 13 12 11 11 11 12 8 7 8 6 8 10 11 10 10 9 7 6 6 4 4 6 6 5 5 4 7 20 10 4 4 1 2 3 1 3 19 25 22 7 8
10 9 7 8 10 16 15 14 13 10 13 8 9 14 10 10 13 16 14 19 22 24 20 17 16 16 11 10 11 11 21 30 30 27 24 25 22 21 19 18 23 22 19 17 19 23 22 18 17 19 18 16 14 15 15 15 13 12 11 11 11 12 11 8 8 4 9 10 11 12 14 11 9 7 5 3 4 6 6 6 5 3 6 15 8 4 5 4 4 2 1 4 21 19 13 6 6
8 7 10 11 6 23 14 19 13 20 15 19 11 10 12 10 11 16 13 17 23 21 19 16 17 13 12 11 10 12 12 12 13 15 23 22 18 15 16 20 18 15 14 14 19 20 20 18 18 19 19 17 16 15 16 15 13 13 13 12 12 11 11 10 7 8 10 9 11 12 13 11 9 9 5 5 5 7 8 3 5 6 12 10 5 14 9 3 5 5 3 13 21 22 16 6 6
10 8 10 6 14 23 17 16 19 24 14 13 15 8 19 12 16 15 14 17 19 19 20 16 15 14 12 11 11 7 8 7 6 10 15 18 19 9 16 13 16 16 16 16 16 18 20 18 18 18 18 17 16 17 15 15 15 14 13 11 12 9 11 11 9 9 10 9 11 11 11 11 8 9 7 5 3 5 6 5 4 8 12 15 12 14 11 8 8 3 5 16 17 17 16 9 7
10 10 5 13 15 23 21 25 19 24 13 15 15 10 13 12 14 18 16 27 18 23 18 16 15 14 12 11 11 10 9 5 9 10 10 16 18 21 15 15 17 18 15 17 18 16 17 18 21 20 21 19 16 13 14 14 15 15 14 13 12 10 10 11 10 12 12 10 10 10 8 9 8 7 6 6 5 4 4 4 6 5 10 18 14 12 6 10 11 6 11 13 14 12 14 12 9
12 13 16 14 15 11 16 14 21 20 8 12 8 9 16 15 17 20 19 21 22 20 20 16 15 14 12 13 11 11 9 8 9 9 12 13 15 21 24 21 18 15 12 13 16 19 19 18 16 17 18 17 17 15 15 15 15 15 14 13 13 11 10 11 11 12 12 11 11 10 9 9 10 8 7 7 7 5 4 4 5 4 11 20 17 10 13 13 9 5 14 13 10 12 13 14 9
12 13 13 16 16 14 12 21 14 17 10 11 5 14 20 13 13 16 21 25 25 20 20 17 14 13 12 14 11 11 11 11 15 13 13 13 16 19 19 24 19 16 14 14 14 14 10 14 15 17 18 18 16 15 15 14 14 12 11 11 12 11 11 10 10 11 12 11 9 10 10 10 11 8 9 8 8 4 5 6 5 11 19 18 20 4 5 6 6 2 12 15 14 9 16 14 11
18 17 20 13 9 10 10 18 18 13 14 9 8 12 17 11 10 10 11 19 27 25 18 14 13 11 11 12 12 10 10 14 14 13 18 19 26 23 24 21 19 17 15 15 16 13 11 9 12 17 18 20 17 17 15 14 13 13 14 11 11 11 12 12 10 12 12 11 10 10 11 11 10 9 9 7 6 4 5 6 9 13 16 18 8 4 8 6 6 6 12 15 12 12 13 15 15
21 17 7 14 18 17 7 19 14 15 16 13 12 6 6 13 8 12 4 7 16 27 21 22 18 16 16 16 14 15 14 15 14 14 12 15 28 29 21 19 18 16 16 17 17 13 15 17 15 17 19 19 19 19 15 13 13 13 10 12 13 12 12 11 12 12 12 12 12 12 12 11 11 10 9 9 8 6 5 9 11 16 14 11 5 5 9 11 7 7 9 14 15 12 13 12 14
18 12 10 19 12 9 18 13 13 8 12 3 4 2 7 16 15 12 10 5 5 12 18 20 20 18 19 20 18 22 18 11 10 8 7 7 21 21 20 18 18 19 15 17 15 17 17 18 10 17 16 20 17 18 17 17 12 15 16 14 11 12 13 14 14 13 14 13 12 12 12 12 9 10 9 9 8 8 8 11 12 12 15 11 5 5 5 13 6 7 8 10 9 15 14 15 16
12 10 5 12 15 12 14 18 12 11 7 10 7 6 6 7 12 14 8 11 11 22 19 24 23 20 19 20 18 17 15 15 12 10 6 8 8 15 18 17 17 17 18 17 16 23 22 14 11 13 18 18 15 16 16 14 13 13 10 11 12 11 5 6 11 12 13 14 11 11 11 11 11 10 10 9 10 10 11 12 14 19 16 6 7 4 4 8 7 7 7 10 12 10 10 8 10
12 14 12 12 16 11 11 5 13 13 12 5 5 2 4 6 12 16 16 11 13 12 22 19 18 22 20 24 22 22 22 18 16 15 16 13 10 13 17 18 18 20 20 20 21 20 18 11 15 21 15 14 13 10 11 11 11 8 6 6 6 4 7 5 9 10 10 12 11 10 10 12 10 10 10 11 10 9 9 14 15 12 7 6 8 7 6 6 6 6 6 8 15 13 9 5 4
3 4 3 8 12 14 10 9 10 5 5 10 8 6 9 6 15 17 13 16 14 16 11 16 15 19 22 25 22 24 24 20 19 12 11 12 12 19 28 30 32 26 23 22 22 15 16 11 10 14 16 16 15 14 11 13 13 10 10 8 6 8 6 6 10 8 10 11 12 11 13 11 11 11 12 11 12 13 13 16 10 7 5 5 7 8 8 9 6 6 7 10 13 14 9 7 4
6 4 6 12 13 17 15 12 12 13 15 6 10 8 11 9 13 18 16 18 11 9 15 17 19 17 15 20 23 22 21 22 23 21 20 17 20 29 33 32 30 28 27 28 26 26 24 18 15 17 19 17 14 10 10 10 12 14 14 15 15 12 14 14 15 17 15 15 16 12 11 11 11 11 12 13 13 15 16 14 10 9 6 7 8 7 6 5 8 8 7 10 10 8 13 9 8
4 9 12 15 16 16 15 19 12 10 12 10 10 13 19 8 13 15 19 17 18 10 14 16 16 21 18 22 23 23 21 16 10 12 15 19 27 29 26 26 26 27 25 25 23 21 19 18 15 15 14 14 14 14 15 15 14 14 18 19 18 20 18 15 11 11 13 11 11 13 12 11 14 13 13 13 13 15 14 12 11 9 7 7 5 9 12 12 10 9 8 10 10 10 10 9 10
12 6 12 14 16 13 14 17 17 16 11 8 6 9 10 13 14 8 5 6 15 18 14 17 20 11 17 26 21 18 20 19 23 20 17 23 25 30 27 23 20 21 21 21 22 22 22 21 18 16 17 19 22 22 22 17 18 16 14 13 14 13 13 14 13 12 10 12 11 11 10 13 13 13 12 11 15 14 14 13 10 9 8 10 7 10 10 11 8 8 8 11 10 10 10 13 10
9 10 18 18 15 18 21 21 14 13 7 14 3 5 15 13 17 12 16 17 10 12 17 14 18 19 22 9 21 24 19 20 18 15 17 23 23 25 24 20 19 21 22 23 24 25 22 22 23 22 21 21 19 20 20 18 17 18 17 15 13 11 9 9 9 10 11 10 10 7 8 9 9 10 12 13 13 12 13 13 11 11 10 11 9 7 6 6 8 11 9 10 10 9 10 10 11
10 13 12 15 8 10 7 4 4 6 6 10 5 4 16 15 9 6 5 8 5 12 17 22 23 25 26 19 16 17 25 31 30 25 25 20 19 18 18 21 21 21 19 17 21 23 24 22 21 21 19 20 21 19 23 24 22 19 17 14 14 12 11 9 10 11 10 9 9 8 9 7 9 10 9 11 11 11 11 12 12 13 10 11 11 9 6 7 9 9 10 9 10 10 7 10 11
7 16 16 14 15 11 6 9 9 13 12 9 7 8 10 16 7 11 10 12 7 9 17 19 25 26 27 27 33 30 31 35 26 25 20 20 16 18 16 19 19 17 18 21 24 27 27 26 26 23 24 22 23 28 24 25 23 22 21 18 17 15 12 12 11 10 10 9 10 10 8 7 11 11 11 10 12 11 10 10 10 9 7 10 12 10 8 10 9 9 9 9 10 11 9 9 9
16 11 11 4 10 8 7 6 7 12 19 7 8 10 10 16 6 13 12 14 19 18 16 19 20 24 27 30 28 33 31 28 22 22 15 15 14 11 11 13 12 15 16 19 22 23 27 29 27 27 26 28 30 32 34 32 28 26 21 19 19 17 16 15 13 12 12 12 11 11 10 12 11 11 11 11 11 10 11 10 9 8 8 11 12 9 8 8 8 9 9 9 9 8 8 10 9
13 4 4 8 8 8 10 7 13 15 20 7 8 14 14 6 5 6 16 18 19 19 20 19 21 20 20 23 28 23 19 22 21 19 13 8 10 9 10 12 10 11 16 18 24 22 22 28 29 31 32 25 22 17 23 27 28 25 22 20 17 15 14 13 13 12 11 12 11 10 12 14 13 13 10 10 8 10 11 12 10 10 8 11 12 10 7 7 7 9 10 8 8 9 10 9 10
7 9 8 11 10 9 9 11 17 13 12 11 13 6 13 14 7 10 13 13 16 16 17 18 19 18 17 19 21 23 22 18 15 10 9 9 10 11 10 6 4 8 13 16 15 19 15 21 26 24 18 15 11 14 14 10 13 16 16 17 16 15 13 12 11 12 11 10 11 11 12 15 15 14 11 9 10 11 10 10 11 10 7 9 11 11 9 7 7 8 9 9 7 8 8 8 9
16 9 11 15 13 16 12 11 14 16 12 3 3 6 10 8 8 7 11 14 15 17 18 18 19 18 16 18 19 19 16 11 12 11 8 5 6 6 5 7 9 12 12 18 17 14 7 12 12 12 11 9 10 9 8 5 10 14 12 11 12 9 10 9 9 10 10 10 10 10 12 13 14 13 14 10 11 11 9 8 10 10 7 8 11 11 10 8 7 7 8 8 7 8 9 8 6
14 15 10 8 16 10 13 9 5 4 6 9 7 5 4 14 9 7 13 16 19 18 19 18 20 19 18 20 19 16 13 12 10 9 10 10 8 8 9 10 8 10 14 14 12 15 8 8 7 5 9 10 12 13 10 7 4 5 9 8 7 6 5 5 7 6 7 11 10 11 12 11 13 13 12 11 10 11 10 10 10 10 8 8 9 10 9 8 7 9 7 7 6 8 10 8 7
14 20 20 17 9 9 12 12 7 7 5 11 7 8 10 9 7 11 14 19 19 17 18 20 19 18 19 20 18 15 12 12 9 6 5 6 9 9 11 13 10 4 10 14 11 9 10 8 4 2 5 9 12 12 13 9 5 2 2 4 6 5 5 6 8 6 6 9 9 10 11 12 12 13 13 11 12 11 11 10 10 9 9 7 7 8 8 8 10 10 9 7 7 6 9 10 8
17 11 14 17 14 14 14 13 7 11 12 12 9 9 4 4 9 8 15 16 15 16 16 17 18 21 23 19 17 17 15 10 8 8 6 6 6 8 11 11 11 14 7 6 6 11 12 13 10 6 5 8 10 11 9 10 8 5 2 2 3 4 5 5 6 6 6 9 9 9 10 12 12 13 14 12 13 12 9 9 10 8 8 8 8 7 8 8 10 9 8 8 7 7 8 7 8
15 18 4 15 13 14 11 12 8 6 8 9 6 13 9 9 7 14 13 14 14 16 15 18 23 24 23 21 18 13 11 12 12 10 7 5 7 10 11 9 7 8 9 12 11 10 12 13 15 13 11 10 9 9 8 8 7 7 10 9 8 6 5 4 5 5 7 10 11 9 10 12 12 13 15 13 12 10 9 9 9 8 7 8 6 8 9 7 8 8 8 9 7 7 8 7 7
14 11 12 9 8 7 7 18 10 12 7 5 7 14 6 7 8 7 9 13 12 13 17 18 20 22 20 19 18 17 17 16 15 13 12 9 9 9 10 10 12 13 11 13 16 17 16 17 15 13 13 9 6 5 6 7 8 10 12 9 7 6 5 5 4 6 8 10 10 9 10 11 13 13 14 13 11 10 11 9 8 8 6 5 6 11 9 8 8 7 8 10 7 8 8 8 6
13 11 13 7 13 7 8 7 8 11 12 7 8 5 4 6 6 10 13 16 12 11 15 17 20 22 20 17 18 17 19 18 17 16 13 13 14 11 9 9 11 11 15 17 16 16 15 14 16 18 10 8 5 7 12 14 15 14 12 10 9 8 6 6 4 6 8 9 8 9 10 12 14 13 14 13 10 11 10 10 9 7 5 4 8 8 7 10 8 7 8 9 7 9 9 8 10
10 17 13 8 6 9 9 14 7 6 10 8 6 8 7 9 11 9 11 13 15 12 14 17 18 22 20 19 18 20 21 21 22 23 24 23 20 16 14 11 12 14 14 12 8 12 13 17 10 12 6 8 15 16 15 17 17 18 12 11 10 8 7 5 5 6 8 8 10 12 12 12 13 12 13 11 10 10 10 10 8 7 5 5 5 5 7 9 7 6 7 8 8 8 8 10 10
Wind_Speed
2 2 3 4 2 3 2 2 1 2 1 6 5 4 7 7 12 12 7 3 6 3 4 5 9 8 5 6 13 11 9 3 2 3 4 3 6 14 17 16 15 13 12 9 9 10 12 16 17 18 18 19 18 18 18 18 18 17 18 17 17 15 16 17 17 17 16 16 15 15 15 15 14 14 14 15 14 13 12 13 14 14 13 14 14 13 14 15 16 16 16 16 14 13 12 10 10
2 3 4 3 3 1 1 2 0 2 2 6 11 3 13 6 4 4 5 10 3 0 3 6 7 5 8 15 11 13 13 8 7 7 9 11 12 11 14 16 15 15 11 10 9 9 10 13 17 17 19 19 18 18 18 19 18 18 17 17 16 17 17 16 17 17 16 15 15 16 15 14 13 13 14 15 14 11 8 12 14 14 13 13 13 13 13 14 14 15 15 16 15 13 11 9 8
3 4 5 3 2 2 2 1 2 2 4 8 8 5 9 3 6 1 10 9 5 4 5 3 3 3 7 11 10 5 2 7 10 10 10 11 14 7 11 13 14 14 13 9 9 9 9 12 17 17 19 19 18 18 18 17 17 18 16 16 16 16 16 16 15 15 15 14 15 15 15 14 13 14 14 14 13 10 7 12 14 12 12 12 12 13 12 12 12 13 14 14 14 13 11 8 7
1 2 2 2 1 2 1 1 2 3 5 6 8 6 3 4 5 9 4 7 3 1 2 4 4 3 11 12 11 12 9 6 6 8 7 7 9 11 12 14 12 12 11 9 9 8 8 13 17 18 19 18 18 18 18 17 18 17 17 16 16 16 14 15 14 14 14 15 14 14 14 14 14 13 13 14 12 9 6 11 11 12 12 12 12 12 12 12 12 13 13 13 14 13 10 8 7
1 2 2 2 0 1 1 2 3 3 10 4 5 4 4 1 5 6 3 4 5 2 0 3 5 7 12 9 3 3 3 8 8 5 8 12 13 13 13 13 12 11 11 11 9 9 10 16 17 17 18 19 18 18 18 17 17 17 17 16 15 15 14 14 14 13 13 14 14 12 12 14 14 13 12 12 10 8 10 12 11 11 11 11 11 9 10 11 12 12 12 12 12 11 9 6 6
3 2 2 2 2 0 2 2 5 8 11 4 6 1 2 4 5 2 1 4 5 4 3 1 2 3 6 6 4 3 2 2 6 7 11 11 17 16 14 12 11 11 11 10 10 8 9 16 16 18 18 18 18 18 18 18 18 17 16 16 15 14 14 14 13 13 13 13 13 12 12 14 14 13 12 10 10 12 11 11 11 11 11 11 10 10 11 12 13 13 12 11 10 9 7 6 6
1 0 1 2 4 0 3 3 7 7 14 7 8 3 2 4 1 1 4 4 4 4 4 2 13 13 10 2 10 9 9 9 7 7 12 14 15 15 14 12 12 12 12 10 10 9 11 15 16 17 17 18 18 18 18 18 18 17 15 14 14 14 14 13 13 12 12 12 11 11 11 13 13 13 11 11 12 12 11 10 11 11 10 10 11 12 12 12 12 11 11 10 9 7 6 5 7
3 1 2 2 2 2 3 6 8 6 9 6 4 5 1 4 2 2 4 1 2 2 0 2 6 14 8 8 6 8 14 13 14 17 18 14 13 11 11 11 12 12 12 11 10 9 15 15 15 17 17 17 18 17 17 17 17 16 14 14 13 14 13 13 12 11 10 11 11 11 12 12 12 11 11 11 12 11 10 11 12 11 10 12 12 12 12 12 11 11 11 10 8 7 7 7 7
2 2 2 1 3 2 4 7 10 9 11 9 2 2 3 2 3 2 2 3 2 2 1 2 11 12 5 12 8 7 10 12 12 13 14 13 12 9 8 11 12 11 11 11 11 9 10 15 15 16 17 17 17 17 17 17 16 15 14 13 13 12 12 11 11 11 9 9 9 10 11 11 11 11 9 10 11 10 11 11 11 11 12 12 12 11 11 11 11 11 11 10 9 8 8 7 7
1 4 2 2 2 6 7 9 6 9 10 6 7 3 2 0 3 2 2 2 4 1 6 2 11 14 10 13 7 3 5 9 11 12 8 9 9 10 12 11 12 14 12 11 11 10 9 17 15 15 16 16 16 16 16 15 15 14 13 13 13 12 11 10 10 9 9 8 9 9 10 10 10 10 8 9 10 9 12 11 12 12 12 12 11 11 11 11 11 10 10 9 9 9 8 7 8
2 3 2 1 3 6 7 9 8 11 7 1 5 3 3 1 4 2 0 1 3 1 4 19 12 13 10 6 3 4 9 11 12 6 3 5 8 13 13 11 13 14 13 12 11 9 9 11 18 15 15 15 15 14 14 13 13 13 13 13 12 12 11 11 10 10 9 9 9 9 10 9 10 10 10 10 10 11 11 11 12 13 12 11 11 11 11 11 11 10 9 8 8 8 7 6 7
3 3 3 3 6 6 6 6 9 8 4 4 3 1 0 3 2 1 3 2 3 2 5 8 6 14 10 4 2 6 9 11 9 7 3 2 11 13 13 11 14 13 13 13 12 9 9 9 11 16 16 15 14 14 13 13 13 13 13 12 12 12 12 11 10 9 9 9 8 9 10 10 10 10 8 9 9 10 11 12 12 12 11 10 10 10 11 11 11 10 9 8 8 7 6 5 4
5 3 3 4 4 4 9 9 7 4 3 4 1 0 1 2 4 8 6 5 7 7 7 12 18 10 4 4 4 7 10 6 8 7 5 4 10 11 12 15 14 12 12 12 13 11 10 9 9 10 12 17 14 13 12 12 12 12 12 12 12 12 12 11 11 10 9 8 8 9 10 9 9 8 9 10 10 10 11 11 11 11 11 10 10 10 10 10 10 9 8 8 7 6 5 4 4
4 4 2 4 4 4 7 7 7 1 1 1 1 1 1 3 4 8 4 4 4 11 4 12 9 16 9 7 6 6 6 7 8 5 5 5 11 11 13 13 14 13 12 11 12 11 10 10 9 10 11 10 9 12 13 13 12 12 12 12 12 12 11 10 10 10 9 9 9 10 9 9 9 9 9 11 11 11 11 11 11 10 10 9 9 9 9 9 9 8 8 8 6 4 3 3 4
6 3 3 3 6 5 5 5 9 1 3 2 2 0 2 2 6 5 3 3 3 11 7 6 9 8 6 7 5 7 9 10 9 8 4 8 11 12 12 12 12 12 12 12 12 11 11 10 10 9 9 9 9 7 7 11 15 14 13 12 12 11 11 11 10 10 10 9 9 10 10 10 10 9 9 10 11 11 11 10 10 10 9 8 8 8 8 8 8 8 7 6 6 3 3 2 4
5 3 2 3 6 4 7 5 8 1 1 1 3 5 3 5 4 4 2 1 1 3 6 3 1 3 11 9 11 13 13 11 10 7 7 7 11 11 12 12 12 11 10 11 11 11 11 11 9 8 8 9 8 8 9 9 14 16 14 14 13 13 13 12 11 10 10 10 11 11 11 8 8 7 11 8 10 10 10 7 9 9 9 8 7 7 7 8 8 7 6 5 4 3 1 1 3
4 3 4 3 7 5 4 2 3 5 1 4 5 7 3 2 2 4 1 1 3 8 12 7 9 6 8 8 16 16 14 13 10 10 8 8 10 9 8 9 10 9 8 10 9 10 10 11 11 9 10 10 10 10 9 10 12 16 14 15 16 14 12 12 12 11 10 9 8 8 7 4 4 4 5 4 9 6 7 9 9 9 8 7 6 6 6 7 7 6 5 4 3 1 1 2 3
3 4 3 8 7 7 7 4 1 2 2 3 4 3 4 6 6 0 1 1 3 12 14 9 13 10 13 15 17 17 14 13 12 11 8 10 9 9 9 8 10 10 10 9 8 10 10 10 11 9 9 10 9 8 6 7 8 11 9 9 9 10 11 10 8 6 7 4 9 6 4 4 4 3 4 7 4 6 7 9 9 8 7 6 5 5 5 5 6 6 4 4 3 2 1 1 2
4 2 4 9 4 6 6 4 2 2 1 2 1 7 3 2 3 2 2 1 4 11 7 13 13 12 14 15 16 15 13 11 10 10 12 12 11 12 10 9 9 10 10 8 8 11 9 9 9 9 9 9 10 7 6 6 7 7 8 8 8 10 8 7 6 6 5 5 4 4 3 3 4 3 3 6 5 7 6 10 9 8 7 5 5 4 4 3 5 5 4 3 3 3 1 1 1
5 3 6 8 8 10 10 5 3 5 5 8 5 2 1 4 4 3 4 6 4 12 7 8 13 12 13 14 15 14 12 12 11 11 11 12 12 12 11 10 9 8 10 9 9 8 10 9 9 9 10 10 9 8 8 7 6 6 6 6 7 7 7 6 6 6 6 5 5 4 4 4 3 4 7 10 9 5 5 8 8 8 7 5 3 2 2 2 3 3 2 3 2 2 2 1 2
3 6 6 5 3 5 7 5 4 4 7 4 5 7 9 4 0 3 5 7 5 6 13 16 14 14 13 14 15 13 12 12 10 10 11 12 12 10 10 9 11 9 8 8 8 9 8 9 8 8 8 10 10 9 9 8 7 7 7 7 6 6 6 6 6 6 6 5 5 5 4 3 4 5 4 4 5 4 3 3 3 2 2 2 3 1 1 0 2 1 1 1 2 2 2 2 2
1 9 11 10 10 10 8 3 5 5 5 3 2 4 4 6 2 2 2 7 3 2 7 10 13 12 13 13 13 12 13 13 11 10 11 12 14 14 11 9 4 5 7 9 9 9 7 8 9 8 8 8 9 9 9 9 9 6 6 6 6 6 6 5 6 6 6 7 6 5 5 5 5 5 5 4 5 4 4 3 3 2 3 2 2 2 2 1 1 1 2 3 5 3 4 3 4
7 6 5 5 7 7 5 5 4 4 3 1 3 2 5 3 2 3 2 2 2 5 14 15 16 16 13 10 11 11 12 13 11 11 12 11 12 11 13 10 9 8 7 9 9 7 7 8 8 8 8 7 7 7 7 7 6 5 5 6 7 5 4 5 6 6 7 7 6 5 6 5 5 5 6 2 4 4 4 4 4 4 3 3 3 3 3 3 3 3 3 3 3 4 2 2 3
5 5 3 7 8 11 9 6 5 5 5 1 1 4 2 3 3 1 3 7 8 10 12 11 11 9 15 13 9 10 10 11 11 10 11 10 10 8 14 13 9 8 9 9 7 6 5 7 7 9 7 7 6 6 8 7 6 7 4 4 7 6 6 4 5 6 6 7 6 5 5 5 5 6 6 2 0 2 4 4 4 4 5 5 3 4 3 3 4 3 3 3 3 3 3 3 4
9 9 8 8 8 6 4 3 3 0 3 1 4 4 6 4 2 3 1 12 10 8 10 11 8 6 8 12 11 11 10 10 10 10 6 6 10 11 10 10 11 10 11 8 8 10 2 4 7 10 9 9 7 7 8 7 6 6 5 5 5 7 6 4 5 5 6 7 7 6 5 5 5 5 4 4 5 3 2 4 5 5 5 5 5 5 5 5 5 5 6 6 6 2 1 4 9
6 6 5 5 6 5 4 4 5 1 1 1 1 3 5 8 6 4 6 11 11 10 10 12 9 8 9 9 10 11 9 11 11 9 11 6 10 11 12 12 11 10 11 12 11 12 12 10 9 10 10 10 8 8 7 7 6 6 5 5 4 6 5 4 3 5 5 7 7 6 5 5 5 4 3 3 5 2 0 0 1 2 5 6 5 6 6 6 5 2 3 2 1 2 7 7 6
8 8 9 11 9 6 5 5 2 3 4 4 5 4 5 6 5 3 5 12 12 12 11 9 11 9 9 7 7 9 10 10 10 8 6 8 6 12 10 11 11 13 14 14 13 9 8 6 6 6 8 8 8 9 8 7 7 7 5 4 4 5 5 4 2 2 5 6 7 6 5 5 5 4 3 3 3 4 2 2 2 2 2 1 6 3 2 3 2 3 3 3 5 10 7 1 5
7 3 5 7 4 4 4 4 5 1 1 2 2 6 5 5 1 6 5 14 14 12 13 12 9 10 9 10 8 6 5 6 5 4 6 6 6 7 10 9 11 14 14 13 10 10 12 12 12 9 8 8 9 9 8 8 8 7 6 5 5 4 5 4 3 2 4 6 7 6 5 5 4 4 4 3 3 4 3 3 3 2 1 2 3 3 2 2 2 2 2 3 9 9 3 3 3
6 6 5 2 3 5 6 7 5 3 3 4 3 2 4 4 8 7 4 15 13 13 13 13 9 9 8 7 7 4 2 12 14 13 12 12 14 9 11 11 14 14 9 14 13 14 14 11 12 11 10 8 9 9 9 7 7 7 6 6 5 5 5 4 3 3 5 5 6 6 6 5 4 4 4 3 2 3 3 3 3 1 1 1 4 2 3 1 2 2 1 3 11 6 4 2 3
6 5 2 5 3 7 8 5 7 5 3 4 4 6 6 6 8 11 6 13 14 13 12 10 8 10 7 7 7 7 8 6 6 4 8 12 10 7 2 3 10 9 8 9 12 14 12 8 8 9 11 9 9 8 8 7 7 7 6 6 6 5 4 4 5 3 4 5 7 7 7 6 5 4 3 2 3 3 3 3 2 1 1 3 4 1 2 2 2 1 0 4 11 3 4 3 3
3 2 3 4 3 8 7 6 8 13 6 12 7 4 7 6 8 8 8 10 14 13 11 11 10 8 7 7 6 7 6 5 8 8 8 7 5 5 6 4 4 3 8 9 12 13 13 11 9 9 11 11 10 9 9 8 8 7 7 6 7 6 5 5 4 2 4 5 6 6 6 6 5 5 3 3 3 4 5 2 3 1 1 3 0 4 5 2 2 2 2 9 9 4 4 3 3
3 2 4 1 6 11 8 8 10 13 5 8 8 4 9 6 8 8 6 7 14 12 11 9 9 8 7 7 5 4 4 4 3 6 10 12 12 6 6 5 10 6 8 10 10 11 13 12 11 11 11 11 10 10 9 9 8 7 7 6 6 6 6 6 5 4 4 5 6 6 4 5 4 5 4 3 2 3 4 3 2 0 3 3 6 3 6 3 2 1 4 10 8 5 6 3 4
1 4 3 5 5 11 7 10 10 16 5 8 10 3 5 4 9 11 6 13 12 14 11 9 10 10 8 5 5 4 4 3 5 7 6 10 10 13 9 7 9 7 7 11 12 11 11 11 12 12 12 11 10 9 9 8 8 8 7 7 7 6 6 5 5 5 5 5 5 6 5 5 5 4 4 4 3 3 2 2 2 2 2 1 7 5 3 1 4 2 6 5 8 6 7 6 3
4 4 7 7 8 6 6 6 13 14 5 4 5 2 8 8 8 11 7 9 14 13 12 11 9 9 7 7 6 6 5 5 6 6 7 9 9 14 15 13 11 7 6 8 10 11 10 8 8 10 8 8 8 8 9 8 8 7 6 6 6 6 5 5 5 5 5 5 6 6 5 5 6 5 4 4 5 2 3 3 2 2 2 1 6 7 8 6 4 1 8 4 6 7 7 6 4
5 6 5 7 9 9 6 4 4 11 4 8 2 5 13 7 8 9 13 9 16 13 12 10 8 8 7 7 6 5 5 6 7 6 8 9 10 10 11 14 11 11 8 9 9 4 5 8 9 10 9 7 7 8 9 8 8 6 6 6 6 5 5 5 5 4 5 5 5 6 6 5 5 5 6 5 5 3 3 3 3 2 3 0 10 3 3 3 4 1 8 6 3 5 9 6 5
9 8 9 6 5 5 4 5 10 9 4 3 4 6 10 6 7 6 7 12 13 15 11 8 8 7 7 6 7 4 5 7 6 4 6 8 8 8 9 12 11 10 9 7 9 7 3 3 7 8 10 11 9 8 6 7 7 7 7 5 5 5 5 5 4 4 5 5 5 6 6 6 5 5 5 4 4 2 3 2 1 2 2 6 7 3 4 3 4 4 8 9 7 6 8 8 8
11 9 3 4 7 10 2 11 6 9 7 6 6 4 3 7 5 6 3 4 9 13 12 10 8 10 9 9 9 9 8 10 6 6 6 9 11 10 11 11 10 9 9 9 7 8 4 3 2 7 10 10 9 10 7 3 5 6 6 6 6 6 6 6 6 6 6 6 6 6 6 6 6 5 5 5 5 4 3 3 3 2 4 7 3 3 5 3 3 4 6 8 9 7 7 5 7
8 5 4 8 6 5 3 5 6 3 6 0 1 1 4 7 7 7 4 0 2 6 9 9 11 10 10 10 10 9 10 2 3 5 5 6 13 13 12 10 11 10 7 8 6 9 10 9 4 10 8 11 9 10 9 9 7 7 8 7 6 7 7 7 7 7 7 7 7 6 5 5 6 6 5 5 4 4 4 4 5 3 7 8 3 3 4 6 3 4 4 6 5 8 7 9 8
6 3 3 3 8 5 10 11 3 4 4 5 5 4 4 4 8 9 5 5 3 14 12 14 15 10 9 10 9 9 6 6 4 5 4 5 6 11 11 10 9 9 6 8 10 12 11 4 5 5 9 10 8 9 8 6 7 7 5 4 7 5 2 4 6 6 6 7 6 7 7 6 5 5 6 5 6 5 4 4 5 7 11 4 4 3 3 6 4 5 4 6 6 3 5 5 7
5 7 7 7 6 5 5 2 8 5 4 2 3 1 2 3 6 10 9 6 5 7 15 13 12 12 13 13 14 12 13 11 9 9 8 6 5 9 10 8 10 13 12 13 12 10 7 6 2 11 8 6 7 6 7 7 7 5 4 4 4 2 3 2 5 5 5 6 6 6 6 7 6 6 6 7 5 5 4 5 6 7 5 4 5 4 3 4 4 4 4 5 8 6 3 3 2
1 2 1 1 6 8 3 3 3 3 1 6 5 2 3 2 5 7 8 10 8 4 8 8 9 12 14 14 11 14 16 13 11 8 6 7 7 13 17 17 17 14 13 12 11 8 7 7 4 8 10 9 8 8 6 4 4 5 6 5 4 4 2 4 6 5 6 6 6 6 7 7 7 7 7 6 6 7 7 6 6 5 4 4 4 5 5 5 4 4 4 6 8 8 5 2 1
1 1 1 4 7 11 11 8 8 5 7 3 6 2 2 4 7 9 9 6 7 5 5 11 12 11 7 9 14 13 13 14 15 14 13 10 14 18 16 15 14 14 15 15 14 15 15 11 10 11 11 11 8 7 6 6 6 7 8 8 8 6 7 7 8 9 8 8 8 7 6 7 7 6 7 7 8 7 7 7 6 5 4 5 5 4 3 3 4 4 4 6 6 5 7 5 3
2 2 4 7 10 9 10 12 6 4 1 4 1 3 5 4 5 8 8 7 10 5 7 8 10 11 11 13 14 13 12 10 7 8 10 13 17 17 16 15 13 14 13 13 12 12 12 12 10 9 8 8 9 9 10 8 8 8 11 11 10 10 9 7 5 5 7 6 6 8 7 6 7 8 7 7 7 7 8 7 7 6 4 4 3 5 5 4 5 5 5 6 6 6 6 5 6
1 0 7 5 9 8 8 9 7 6 3 1 1 4 3 3 7 4 4 5 8 10 9 7 4 2 9 14 13 11 9 9 11 11 11 16 17 19 17 15 12 13 13 13 13 13 14 14 12 10 9 10 11 11 12 10 10 9 8 8 7 7 8 8 7 6 5 6 7 7 6 7 8 7 7 7 8 8 8 8 6 6 5 5 2 6 7 7 5 4 4 7 6 6 6 7 6
3 6 11 11 9 11 11 9 7 4 3 6 1 1 3 1 5 7 8 10 3 8 10 9 12 12 13 4 9 10 6 3 3 7 11 12 13 13 13 12 11 13 12 13 14 15 13 12 14 13 13 13 11 11 11 11 10 10 10 8 7 6 5 4 5 5 5 5 6 5 5 6 6 6 7 8 8 7 8 8 7 6 6 6 6 5 4 4 5 7 5 6 5 5 6 6 6
4 6 5 7 4 1 1 0 1 2 1 4 1 1 3 5 5 3 2 1 3 5 11 14 14 14 12 8 3 9 18 20 19 15 10 11 10 9 9 10 10 11 9 11 13 14 14 13 14 14 13 12 12 12 13 15 14 11 10 9 9 7 4 4 5 5 5 5 6 5 5 4 5 5 6 7 7 7 7 7 7 7 6 6 6 5 4 4 6 6 6 6 6 6 5 6 7
3 10 9 7 7 5 1 1 2 3 1 2 4 3 4 4 2 7 5 5 4 5 8 10 14 15 19 19 22 14 11 13 14 11 12 6 8 9 10 12 9 6 8 12 14 15 15 15 15 16 16 12 14 17 16 15 14 13 12 11 11 10 8 6 5 5 4 4 6 6 5 4 6 6 6 6 7 7 6 6 6 6 5 6 6 6 5 6 6 6 6 6 6 7 6 6 6
8 2 5 1 4 3 3 2 4 0 4 4 3 5 4 6 2 7 6 7 11 10 10 12 12 14 16 14 10 12 12 12 13 13 7 4 2 4 5 8 6 6 5 8 12 13 14 15 16 18 15 16 16 17 19 19 16 15 13 12 12 10 10 8 7 6 6 6 5 6 5 5 6 6 6 6 7 6 7 6 6 5 5 7 6 5 5 6 5 5 6 6 6 5 5 6 6
8 2 1 3 1 2 2 2 1 3 4 2 4 9 5 1 1 1 9 11 12 12 11 10 10 11 13 14 13 10 9 9 8 8 7 4 3 4 3 3 4 7 9 8 10 11 12 13 17 17 20 15 2 7 8 6 4 11 10 10 9 8 8 8 8 7 6 6 5 5 6 6 7 7 6 6 5 6 7 7 6 6 6 7 6 6 4 4 5 6 6 5 5 6 6 6 6
4 2 2 3 2 0 1 2 2 2 3 6 7 2 1 2 3 6 7 8 10 10 10 10 11 11 11 12 10 10 10 8 7 6 5 4 5 4 3 3 2 1 2 2 4 4 6 5 9 7 6 11 6 3 4 3 1 1 5 7 6 6 6 6 6 7 6 5 5 5 7 8 8 7 6 6 6 7 6 6 6 6 5 6 6 6 5 4 4 5 6 6 5 5 5 5 5
6 4 4 7 4 2 2 3 4 7 6 0 2 2 2 4 2 4 7 8 9 9 11 11 13 12 10 12 12 10 8 6 4 5 4 3 2 2 2 2 3 7 7 9 8 8 5 4 4 4 7 6 7 6 5 2 0 1 2 4 5 4 5 4 4 5 5 5 4 6 6 7 8 7 7 6 6 7 6 5 6 6 5 5 7 6 5 5 4 4 5 5 4 5 6 5 4
3 4 5 3 6 4 4 3 1 1 2 3 3 1 2 4 3 2 8 10 12 11 12 11 13 12 11 12 11 9 8 7 6 6 6 6 5 4 2 2 4 4 7 5 1 6 3 1 1 2 4 7 8 9 7 5 2 1 0 2 4 4 3 3 3 3 3 4 5 6 6 7 7 7 6 6 6 6 6 6 6 6 5 5 6 6 5 5 4 5 4 4 4 4 6 5 5
4 9 8 9 5 4 2 4 1 5 3 3 3 3 2 1 4 7 9 13 12 12 12 13 12 12 12 12 10 9 7 7 5 2 2 4 6 6 6 7 5 2 1 6 8 5 5 6 3 2 3 6 8 9 9 6 4 2 1 1 3 3 3 4 4 4 3 4 4 5 6 7 7 7 6 6 7 7 7 6 6 6 5 5 5 5 5 5 6 5 5 5 5 4 6 6 5
4 2 7 6 6 3 3 3 1 2 3 3 3 5 1 1 1 5 10 11 10 10 10 11 12 13 14 11 10 9 8 6 5 4 4 4 3 5 6 7 5 4 3 4 2 3 5 4 4 3 2 3 5 7 5 6 5 3 2 2 2 3 3 3 3 4 3 4 4 5 6 6 7 7 7 6 7 7 6 6 6 5 5 5 5 4 4 5 6 6 5 5 4 4 5 4 5
7 9 2 4 2 6 3 0 1 1 0 1 2 7 3 1 2 4 7 9 9 10 10 11 14 15 14 13 11 7 7 8 7 6 4 3 4 4 4 3 5 6 6 8 8 6 7 3 1 3 5 6 6 5 4 3 4 4 6 6 5 4 3 3 3 3 3 5 5 4 6 6 7 7 8 8 7 6 6 6 6 5 5 5 4 5 5 4 5 5 4 5 4 4 5 4 4
7 3 5 3 3 2 1 4 3 5 2 2 2 8 1 2 2 4 5 7 7 8 11 11 12 14 11 10 10 10 10 9 9 8 7 6 5 5 3 3 5 6 4 3 6 7 9 10 10 9 7 6 4 3 4 5 5 7 5 3 4 3 3 3 3 3 5 6 5 4 6 7 8 7 8 8 7 6 7 6 5 5 4 4 4 6 5 5 5 4 5 6 4 5 5 5 4
5 4 4 1 1 3 4 0 2 3 3 2 2 2 1 3 2 2 7 8 7 7 9 10 11 13 12 11 10 11 12 11 10 10 8 7 6 5 5 4 7 6 4 4 5 8 9 8 5 7 4 0 3 5 8 9 9 8 4 4 5 4 4 3 3 4 5 6 5 5 6 7 8 8 8 8 6 7 6 6 5 4 4 3 5 5 4 5 4 4 5 5 4 5 5 5 5
5 6 5 4 1 2 4 6 3 1 4 2 2 3 2 3 4 4 5 6 8 8 10 9 10 11 10 11 12 12 11 13 14 13 14 14 13 11 9 7 8 9 9 8 5 6 8 11 5 3 3 4 4 7 8 9 8 6 5 4 6 5 4 3 3 4 4 5 5 6 7 8 8 7 7 7 6 6 6 6 5 4 3 4 4 4 5 5 4 4 4 4 5 4 5 6 6
Wind_Direction
302 280 253 238 207 231 343 194 59 282 179 250 266 223 260 197 233 262 290 6 60 9 27 46 52 33 69 108 105 75 30 78 290 138 199 110 112 105 111 113 111 111 114 121 127 129 127 129 128 126 126 126 125 125 126 126 126 126 124 119 116 113 112 111 111 112 114 115 114 113 112 109 109 108 107 104 100 100 107 112 104 99 100 98 94 90 86 84 78 76 76 79 79 79 76 67 65
289 262 242 229 241 124 301 162 217 272 231 277 253 224 252 264 333 35 68 63 61 92 341 53 56 64 78 105 106 83 41 42 48 86 77 105 101 97 110 113 119 117 114 119 124 122 125 128 127 128 128 128 127 127 128 128 128 127 124 118 116 115 115 113 114 113 115 116 116 115 114 112 111 109 106 103 103 102 103 109 107 102 103 101 95 91 86 83 79 74 75 75 77 77 73 66 60
356 350 327 211 285 218 284 327 238 228 191 243 265 187 251 339 139 110 75 81 67 57 28 68 78 54 59 74 51 67 144 77 80 78 101 115 104 111 110 109 111 114 118 122 124 123 125 129 129 128 127 128 129 130 129 129 130 127 120 116 116 115 113 113 113 114 116 117 117 117 117 117 113 111 109 109 109 112 110 102 100 104 102 100 95 88 87 82 77 75 77 77 75 74 68 62 58
319 256 208 341 315 134 297 231 197 238 260 249 288 285 206 186 105 106 96 84 84 39 24 30 57 331 99 81 95 91 111 94 88 111 127 117 109 121 112 110 111 115 116 124 121 123 126 131 127 127 128 129 131 131 130 131 129 125 121 117 116 116 113 113 114 116 118 119 120 123 124 122 118 115 114 113 116 121 112 100 106 108 109 105 96 87 82 81 77 74 74 74 72 71 69 55 52
324 266 199 244 246 259 179 201 209 170 242 214 246 312 23 88 76 81 124 155 137 142 228 136 94 34 75 83 67 80 104 112 103 69 91 106 115 119 118 118 118 118 121 120 118 121 127 129 128 127 128 131 133 132 132 132 131 128 124 118 117 116 116 116 117 118 120 121 121 122 120 118 120 120 120 120 118 119 108 104 109 113 110 99 89 89 83 76 73 72 67 63 64 66 64 55 38
260 294 241 167 199 329 6 299 278 243 243 212 258 235 76 51 23 359 21 119 118 115 107 71 106 140 47 46 34 74 137 99 113 78 102 120 124 127 125 126 125 120 119 110 114 119 129 127 128 129 129 132 134 135 134 134 133 130 125 121 120 119 119 119 121 122 123 124 123 124 124 125 124 124 123 123 124 118 108 115 117 121 110 103 97 93 84 75 69 61 59 57 56 61 60 44 30
257 121 290 146 280 288 217 251 260 259 261 231 249 254 171 105 116 13 34 63 350 52 123 111 104 92 89 109 59 40 32 115 101 104 108 131 129 129 128 126 119 115 109 107 110 118 123 124 128 128 129 132 135 136 135 135 134 132 125 122 121 123 123 123 123 125 125 125 124 126 125 127 126 126 126 126 126 122 116 118 115 99 102 101 94 85 78 73 69 65 63 61 64 66 67 48 32
256 61 262 122 258 154 244 238 255 250 274 255 256 147 85 70 70 50 43 26 359 65 273 140 101 86 53 57 95 41 66 74 103 109 123 126 122 119 119 114 110 105 107 109 110 117 124 120 125 127 129 133 135 135 134 135 135 131 125 125 125 125 125 126 125 124 127 128 128 128 128 130 127 126 127 127 125 123 123 114 108 104 99 94 91 83 77 74 70 67 64 65 65 68 63 49 39
243 153 261 316 264 266 264 237 246 242 261 257 243 163 202 116 96 66 347 330 351 120 202 226 129 96 143 90 71 86 82 93 95 107 115 115 114 120 113 115 112 109 105 105 109 112 116 122 123 127 130 133 135 136 136 136 136 134 128 128 127 125 127 127 127 127 127 131 130 129 133 135 129 126 125 127 127 128 123 117 109 107 101 100 90 87 84 79 73 71 71 67 66 66 63 55 42
287 155 279 208 185 242 252 264 263 246 234 252 178 148 139 50 138 170 91 314 255 273 215 72 82 108 117 93 97 57 104 93 89 58 51 101 113 103 109 111 106 103 102 106 110 115 125 125 122 125 128 134 136 138 137 138 138 135 130 127 127 129 128 125 121 122 125 124 123 129 134 135 129 125 123 129 133 127 124 121 112 110 107 98 92 87 83 77 73 72 73 70 64 61 56 49 40
260 183 221 303 286 265 251 266 255 280 265 156 123 113 153 175 83 35 20 218 280 274 34 99 85 107 92 74 81 85 98 99 90 80 43 35 94 109 112 102 100 107 110 113 114 118 123 125 125 124 127 131 133 133 135 137 136 133 129 128 129 129 124 117 118 119 121 123 128 130 130 126 128 128 134 135 137 128 122 121 117 114 107 99 93 88 80 78 76 75 78 75 73 67 59 47 36
266 234 165 218 240 220 248 248 263 265 272 142 73 129 264 129 101 52 35 358 322 292 221 132 146 112 84 117 87 85 89 82 109 147 138 53 103 105 111 107 108 110 114 117 116 120 125 128 125 132 129 130 130 131 134 136 134 131 130 129 125 120 117 119 118 117 120 126 124 120 127 126 130 135 135 131 128 132 121 125 121 114 109 104 94 89 82 79 78 75 80 78 70 66 60 41 22
229 260 250 235 233 224 257 268 270 302 355 4 213 249 245 82 80 57 28 347 345 349 14 99 144 117 113 126 125 89 94 129 143 141 113 86 104 104 102 110 114 113 115 120 122 127 128 128 130 132 132 132 130 131 134 133 130 127 126 124 120 121 127 128 127 127 125 124 121 121 127 128 127 127 127 126 126 126 127 126 122 116 113 108 98 94 91 86 83 84 87 87 77 68 54 29 7
210 211 217 262 264 273 275 275 278 23 279 224 194 251 22 64 35 57 19 326 357 43 6 99 73 90 90 111 115 107 134 151 140 123 147 151 119 109 107 114 114 117 122 128 128 134 134 133 134 137 137 135 137 133 130 128 121 119 119 120 124 128 134 134 133 132 131 129 127 129 129 125 121 119 122 126 128 128 125 125 123 122 117 111 108 102 98 93 90 85 88 95 96 83 64 27 5
223 229 251 240 278 294 270 273 268 112 248 232 314 47 5 93 116 117 177 268 81 138 135 93 147 101 194 143 146 160 163 162 148 161 167 128 118 114 114 115 118 124 130 134 136 140 140 140 141 137 137 135 133 126 127 125 123 123 121 123 128 134 137 138 134 139 138 130 132 132 136 132 128 123 119 123 131 132 129 127 130 127 120 119 116 111 105 104 95 92 89 100 112 114 90 24 9
208 246 235 264 270 261 273 281 292 212 164 25 332 12 336 71 102 138 167 108 177 78 131 68 25 119 154 165 157 146 152 152 159 150 121 116 118 119 120 119 126 130 135 143 144 147 147 144 140 139 137 136 132 129 129 130 129 128 128 130 135 141 145 138 137 137 137 137 139 139 142 136 129 130 134 134 135 132 128 135 136 124 125 126 124 123 116 108 104 97 98 101 111 130 116 52 355
215 195 268 288 273 252 268 260 353 69 254 41 14 3 61 84 300 71 38 15 20 86 62 58 88 112 131 130 129 140 152 149 149 140 133 118 124 128 129 128 130 134 140 151 153 149 145 142 146 146 146 142 138 139 139 138 140 136 135 138 142 145 141 137 137 136 134 137 136 137 127 108 105 119 124 128 140 125 137 140 133 132 131 131 128 124 121 114 111 106 105 106 102 90 13 10 349
202 211 208 247 242 253 249 270 146 195 57 25 37 316 1 48 340 80 207 124 203 93 101 90 81 92 117 127 133 142 148 143 147 140 138 127 134 135 133 143 144 149 152 156 155 146 143 148 151 145 141 141 140 136 137 137 135 136 138 140 141 138 137 136 132 131 133 128 141 131 121 129 119 121 132 139 118 145 144 142 135 130 133 128 120 116 125 119 111 119 114 118 124 126 255 352 352
202 222 194 240 224 262 279 305 44 62 350 82 307 42 0 50 333 18 355 328 197 94 60 97 94 103 115 125 131 135 137 137 144 146 145 142 145 142 145 153 155 150 155 156 154 148 145 148 149 146 146 142 138 131 129 129 132 137 139 140 140 139 136 131 133 134 125 132 133 137 120 118 133 145 132 143 135 147 148 144 140 143 140 136 127 125 118 124 116 118 136 126 136 156 167 264 301
215 207 233 249 236 253 277 298 73 62 24 24 7 66 269 331 7 315 25 328 345 119 118 92 117 134 135 133 135 139 139 142 152 154 152 150 148 151 150 156 160 159 157 158 150 144 146 150 155 148 145 143 141 137 136 138 139 137 139 140 141 143 140 143 142 135 136 134 136 129 117 108 113 136 149 157 147 135 142 147 150 150 153 142 155 121 147 133 136 133 142 154 156 195 199 226 222
176 214 230 252 299 311 290 333 51 64 53 28 349 356 335 318 98 17 340 340 359 134 157 156 161 143 142 143 140 145 145 147 158 161 157 155 155 158 154 151 176 163 147 128 132 139 132 144 145 133 138 142 138 139 140 143 144 143 148 149 149 151 150 152 148 140 140 139 125 109 103 98 108 114 118 105 104 121 110 125 138 124 113 144 148 119 172 237 137 137 168 153 205 241 232 213 210
173 213 226 241 259 268 267 30 83 69 76 32 326 296 304 305 6 50 297 272 258 152 142 112 127 140 149 152 151 144 147 155 164 165 168 167 161 162 137 164 189 119 127 131 143 131 131 133 131 128 128 132 134 143 147 143 136 138 144 145 150 163 156 148 133 127 129 125 114 108 99 94 99 109 110 117 115 121 131 133 150 155 159 175 172 197 196 222 169 215 203 179 213 215 224 223 181
226 258 255 244 237 261 290 314 89 91 68 77 353 276 320 11 5 307 290 211 221 149 141 146 151 156 152 149 150 147 151 158 169 175 174 181 167 148 147 155 170 143 141 136 140 122 123 120 119 124 126 127 127 134 121 111 119 117 125 150 158 151 110 129 127 115 112 110 105 113 121 113 107 121 113 82 139 142 152 167 182 181 189 186 189 203 210 203 190 205 239 224 218 220 235 224 152
231 255 225 245 247 243 253 278 92 75 75 355 286 327 295 16 359 311 339 106 147 147 132 141 151 156 146 140 144 148 152 166 176 187 186 178 163 128 153 159 166 140 129 139 117 103 99 112 121 129 132 133 131 134 119 117 121 133 147 141 145 137 128 138 133 117 112 114 115 115 121 121 122 118 120 128 329 162 184 180 197 192 201 195 183 203 219 209 191 203 225 238 233 237 247 207 122
214 240 254 274 286 270 287 253 243 159 221 209 259 290 290 307 264 313 80 142 131 144 126 127 130 140 141 138 148 159 157 165 185 189 188 168 131 141 147 151 152 133 124 101 66 70 117 163 152 144 145 141 140 134 123 122 135 140 131 150 150 130 139 167 145 122 117 121 121 123 128 125 114 111 115 123 143 200 221 209 194 194 205 204 177 207 214 206 191 199 208 203 204 202 233 75 82
207 243 234 237 246 268 263 289 282 189 97 154 309 244 246 236 252 255 266 144 145 148 131 139 141 155 151 148 154 165 172 174 185 184 190 181 150 146 158 153 137 105 87 89 139 174 178 172 149 146 149 149 145 132 130 134 145 138 152 157 145 123 147 168 155 137 133 126 125 129 124 127 129 120 101 120 133 154 55 276 152 187 203 204 182 197 218 195 186 159 181 145 79 39 28 87 112
190 225 232 248 261 276 284 277 267 223 187 190 204 233 242 245 168 272 223 137 142 146 141 147 155 165 151 151 164 171 174 181 188 182 190 189 182 154 157 127 116 120 133 160 164 152 146 137 134 148 143 145 145 136 136 138 143 147 151 138 124 130 137 151 162 158 144 131 131 130 127 128 121 102 103 120 101 100 94 83 27 23 37 260 184 190 140 127 120 106 132 118 86 65 68 71 102
308 292 279 272 293 296 307 314 293 350 241 187 267 278 292 286 172 221 235 144 142 147 152 156 166 164 152 154 161 179 179 191 194 172 194 203 195 152 114 100 134 147 160 158 150 150 160 160 143 159 163 159 151 141 139 145 148 144 140 133 142 149 138 145 161 190 141 130 127 128 122 116 104 88 104 100 102 101 123 77 61 34 1 13 303 142 89 79 73 113 85 112 89 93 133 49 52
280 306 295 264 294 282 271 266 279 273 248 180 194 269 252 219 241 241 219 144 142 151 165 162 169 161 154 159 158 149 93 36 18 13 360 353 3 20 96 155 151 158 164 150 150 152 161 161 154 156 152 156 151 144 145 149 137 132 134 143 153 152 135 131 184 211 141 128 122 115 103 94 90 107 108 112 130 130 110 103 101 49 278 239 289 146 151 96 81 77 177 86 84 88 77 45 66
239 254 275 333 319 279 244 235 235 238 216 202 151 261 274 245 226 231 222 152 155 155 161 163 164 158 152 138 117 85 60 73 73 32 9 4 12 34 115 209 162 156 145 146 146 156 160 156 154 145 153 154 151 143 145 147 137 131 138 145 147 146 144 151 182 219 134 117 111 106 113 127 123 118 128 154 160 125 105 96 100 103 297 2 319 322 174 139 139 101 301 72 85 141 123 160 121
304 259 197 221 293 260 235 226 206 223 177 208 150 228 270 253 255 240 221 158 159 159 169 163 156 149 134 121 116 116 121 157 162 165 152 119 67 90 336 346 330 160 142 147 155 155 156 156 149 150 155 155 152 149 150 145 136 138 142 149 149 156 166 163 181 168 121 114 113 118 143 133 122 126 137 164 170 127 125 119 112 163 212 19 323 355 296 108 109 48 32 75 117 124 117 85 72
222 315 299 291 190 261 259 226 203 211 177 175 127 229 250 243 264 279 253 225 161 161 168 154 149 140 121 102 97 98 128 152 176 203 156 133 111 125 149 184 221 203 149 146 151 156 159 158 151 151 156 153 153 151 148 140 139 139 142 139 140 146 149 157 151 145 135 125 117 120 140 132 134 136 150 142 100 114 116 125 118 147 56 62 289 193 265 116 100 96 56 101 115 125 107 83 60
186 166 242 244 230 253 279 238 211 200 183 162 141 205 292 267 236 249 234 236 141 151 157 163 150 129 116 116 118 133 135 162 189 207 138 117 129 129 165 216 242 199 162 152 160 165 157 156 153 151 155 152 148 142 133 130 131 140 141 137 142 138 145 147 142 141 137 135 125 121 127 135 126 137 147 123 124 104 101 106 132 116 117 122 256 202 178 321 131 152 84 85 123 130 122 106 71
256 175 217 224 242 259 264 241 189 179 180 146 138 211 248 250 270 274 254 201 139 138 163 167 152 137 130 133 141 146 158 179 196 182 164 135 148 156 165 184 216 216 163 163 171 165 142 134 152 148 140 143 138 127 123 126 132 134 131 137 145 148 146 143 147 149 151 147 138 140 134 134 152 154 146 134 128 129 145 138 124 88 95 51 273 230 130 200 158 146 109 97 111 121 111 116 127
213 203 218 253 247 243 226 183 159 168 176 125 154 190 251 252 267 267 283 176 136 148 163 168 144 130 150 151 147 156 173 185 213 198 153 149 162 178 175 184 191 193 176 168 170 117 117 163 154 139 129 140 127 108 111 121 121 117 120 136 155 151 142 149 147 147 149 146 142 145 145 150 158 154 139 153 133 160 132 139 135 132 86 225 243 204 106 113 94 92 120 136 120 114 120 132 112
233 200 206 242 247 251 243 171 167 150 129 132 163 191 255 274 273 303 348 115 136 155 158 159 151 145 150 148 144 153 186 221 225 180 162 163 170 170 181 177 180 182 163 161 165 102 163 144 139 132 151 146 125 99 98 113 119 131 139 148 151 146 142 142 140 146 148 149 145 141 150 155 155 162 141 133 121 150 141 135 139 85 119 224 225 124 109 142 137 148 117 124 113 95 105 136 123
264 280 274 250 267 264 256 155 153 146 138 179 198 213 261 298 300 302 26 19 135 155 166 157 166 160 161 152 167 174 191 217 208 187 184 172 181 184 181 165 168 168 156 162 159 117 165 133 130 160 152 132 124 116 109 97 135 139 149 167 165 157 157 154 152 159 164 165 157 152 156 149 151 157 148 140 137 164 115 102 82 53 260 229 178 143 151 164 179 141 128 125 129 121 113 128 135
275 297 335 318 304 272 273 164 169 122 109 228 90 23 301 287 297 299 311 142 132 176 156 167 171 176 166 157 161 179 203 252 187 180 167 144 162 184 166 159 153 153 168 160 134 60 53 50 323 151 136 121 114 115 142 166 181 171 164 171 163 167 163 163 162 167 163 167 158 156 154 155 152 150 146 135 143 132 130 132 112 163 233 214 150 162 128 169 183 128 125 118 128 128 131 151 158
282 264 276 333 306 298 301 160 133 110 87 192 147 165 251 283 296 310 306 279 225 170 164 180 176 165 158 158 172 177 187 207 178 188 172 169 159 149 154 151 153 147 118 81 54 51 54 55 273 82 90 106 122 138 153 170 174 172 170 169 166 158 179 186 162 158 153 154 157 148 152 161 160 149 144 154 156 145 151 148 135 202 220 166 139 142 161 146 142 143 136 131 110 96 117 157 182
243 282 280 268 270 307 319 336 139 162 150 166 68 134 261 307 319 304 312 304 269 177 178 172 160 163 165 175 172 178 183 189 184 181 189 183 144 123 121 80 54 51 48 57 59 55 73 40 119 110 104 109 122 136 154 180 182 166 135 136 143 122 176 174 131 135 132 140 155 151 152 164 164 158 158 164 145 148 151 167 185 199 199 156 154 159 142 140 134 138 138 121 123 123 134 185 229
287 187 130 210 284 286 282 249 330 212 252 125 135 91 345 316 289 293 294 295 302 273 152 171 173 175 182 177 175 175 180 186 185 179 182 168 128 87 86 95 91 92 102 107 138 139 116 134 125 111 119 135 156 172 172 173 142 114 103 97 101 98 96 128 135 148 160 159 153 165 172 173 170 165 163 165 157 165 162 190 195 184 158 157 151 144 153 158 154 158 140 131 143 146 147 143 219
334 298 259 284 290 303 317 329 349 30 340 317 114 26 301 247 228 247 265 274 273 251 209 174 184 188 178 176 192 197 188 183 182 178 175 161 99 107 115 107 116 129 135 147 147 155 155 146 159 150 152 154 161 170 157 161 166 153 148 152 160 172 177 174 175 173 171 169 174 173 162 176 170 167 170 174 173 170 174 189 174 158 156 154 156 155 130 138 154 157 148 140 128 145 146 137 147
79 266 186 231 265 282 298 304 346 338 259 287 38 150 272 314 257 249 249 250 255 268 239 196 195 202 180 190 194 199 195 197 198 159 152 116 115 114 117 129 136 137 145 145 144 138 137 154 158 154 148 152 161 175 175 172 176 179 177 176 176 178 178 198 189 179 172 176 156 166 173 173 175 177 185 185 182 176 172 165 156 154 151 147 137 130 143 197 183 163 140 128 146 138 135 141 158
234 236 277 228 228 246 261 274 275 247 232 222 135 138 194 302 287 260 231 216 263 278 274 276 273 236 220 192 196 196 193 196 197 177 128 120 128 130 139 141 142 144 152 150 138 139 149 159 154 155 164 170 182 183 180 179 178 180 180 186 180 187 189 183 183 180 173 160 158 168 167 177 185 194 192 184 172 160 151 149 151 148 150 135 150 173 163 183 160 126 147 142 144 141 149 152 170
196 203 230 254 229 221 229 228 245 254 250 301 349 49 328 280 281 284 281 291 49 44 21 30 35 35 31 215 194 202 193 214 358 48 88 110 121 133 128 134 144 147 160 149 145 151 151 159 162 164 172 179 183 185 179 181 182 183 184 180 182 198 185 178 160 155 157 163 157 173 176 176 182 185 166 151 145 143 143 148 153 158 155 169 172 140 158 143 141 146 139 129 141 150 151 157 152
218 252 250 250 262 63 292 209 116 341 247 283 299 53 275 290 281 326 325 248 30 37 51 41 31 24 19 18 215 58 49 48 32 39 75 99 102 102 123 130 144 161 157 136 145 152 156 162 167 168 177 181 183 185 192 183 177 177 184 182 180 185 176 161 154 159 162 167 162 179 179 166 169 158 137 138 136 139 142 150 152 163 172 168 153 155 141 126 132 137 137 134 139 137 145 145 158
202 199 235 262 282 267 261 115 112 51 29 241 236 211 174 280 292 337 28 21 14 31 43 44 40 27 24 44 64 77 73 75 76 30 350 53 103 116 133 145 155 159 154 150 156 163 166 168 170 171 182 185 183 185 188 191 183 180 183 180 175 175 171 159 157 161 163 166 168 177 169 169 158 144 139 131 136 138 138 144 140 157 153 144 144 139 133 138 138 136 135 135 138 140 148 144 140
227 163 193 23 345 27 41 338 22 99 275 268 310 280 190 230 324 17 34 42 47 53 52 48 41 38 44 43 56 75 91 96 107 115 112 331 63 115 129 132 142 163 164 170 169 171 172 179 173 170 187 192 193 191 188 185 184 181 178 175 175 173 167 163 167 169 175 176 177 170 163 144 131 127 125 121 136 137 138 139 135 123 118 124 138 136 132 132 135 133 133 139 145 148 147 144 143
189 109 31 104 255 57 332 28 333 227 221 255 226 254 276 96 146 357 39 39 42 44 55 58 49 41 51 60 58 62 74 84 83 94 106 137 109 85 67 82 136 165 187 190 192 181 182 194 184 169 189 190 108 17 341 311 225 172 167 169 169 165 163 164 165 170 177 180 174 157 147 144 126 117 130 117 132 126 126 128 128 129 119 132 138 135 144 138 133 142 144 151 149 150 159 154 151
91 148 137 131 202 50 233 243 195 258 251 223 233 11 227 206 79 24 58 53 52 52 54 66 72 53 47 61 66 64 66 68 75 74 80 54 37 45 72 74 40 6 297 272 296 263 192 286 286 188 113 80 81 67 5 340 317 194 167 163 161 154 159 168 171 170 176 180 166 151 145 140 132 135 141 137 142 125 122 128 132 136 134 132 138 139 140 139 137 140 149 148 155 153 146 152 158
183 173 170 171 156 160 206 178 190 208 211 268 129 112 217 132 226 317 52 51 57 55 61 63 64 60 52 53 54 50 54 58 71 89 100 87 51 18 15 25 101 104 56 354 337 320 336 324 352 25 82 79 81 76 79 56 39 276 177 155 148 141 149 165 173 175 173 171 158 143 142 138 136 146 147 150 131 124 130 121 133 135 130 118 130 136 142 143 135 124 137 144 140 149 143 141 152
226 177 174 134 210 161 210 207 161 171 40 3 341 116 327 133 227 60 59 46 35 40 49 58 65 65 60 50 46 45 39 38 23 14 11 13 11 9 12 50 43 51 106 133 276 320 314 1 41 41 98 94 89 96 94 83 68 33 308 119 139 128 134 147 165 169 194 174 154 147 146 138 146 148 147 134 131 124 117 119 119 126 125 122 125 137 147 141 135 131 128 130 142 152 147 150 165
249 176 188 205 195 156 217 263 203 108 62 256 189 57 356 67 27 36 46 40 26 27 37 40 48 56 61 58 49 43 44 37 26 24 54 25 10 9 9 12 24 33 233 145 153 205 225 186 174 170 120 124 123 117 122 103 82 88 62 63 113 120 140 166 182 183 200 177 152 149 142 147 141 137 138 124 120 118 119 115 118 120 121 125 126 132 143 136 143 139 142 143 153 149 145 162 157
285 281 241 206 196 212 151 204 297 179 163 250 162 167 74 38 345 25 28 41 26 21 34 40 44 45 54 58 55 53 47 43 37 26 17 37 37 33 11 353 353 10 2 2 10 253 234 229 180 150 108 94 99 94 91 107 107 106 114 108 128 147 163 184 188 188 192 156 155 138 135 136 136 134 127 120 118 124 123 117 125 129 136 142 150 142 137 129 141 148 149 152 166 147 147 151 159
192 212 197 145 195 224 253 228 250 122 207 227 141 102 122 100 213 359 23 33 24 25 25 35 42 43 43 49 51 44 50 52 46 27 26 12 23 46 46 1 349 1 6 19 352 328 321 323 9 61 44 47 61 77 82 87 129 176 188 173 160 168 185 192 204 187 172 155 156 142 139 137 125 123 120 120 123 124 114 125 118 123 137 158 142 142 145 135 142 144 143 150 155 142 138 139 152
246 298 308 197 130 167 166 200 182 125 228 101 291 82 323 331 319 340 23 35 30 33 38 28 42 46 43 41 40 29 31 40 47 45 36 37 13 11 15 32 38 41 45 29 360 352 359 9 15 14 32 55 68 93 127 148 182 202 202 165 139 157 192 190 204 170 164 154 158 141 135 128 132 128 128 128 130 118 128 123 117 120 147 146 125 156 147 144 141 143 145 148 157 143 139 140 132
223 244 296 342 215 202 139 256 168 158 170 161 181 50 340 323 314 2 44 39 47 47 60 42 37 41 35 40 37 33 30 29 39 41 33 31 32 12 1 9 28 15 18 44 40 29 20 11 13 359 27 269 205 185 174 190 188 198 175 166 150 160 204 203 193 182 160 149 149 142 133 134 128 130 130 133 132 126 131 125 122 134 142 136 144 139 143 149 151 154 161 166 162 154 147 136 129
171 168 219 201 244 304 229 271 343 72 92 181 106 134 219 1 346 38 49 38 58 50 59 61 43 43 40 39 42 44 40 37 35 34 29 22 17 11 25 38 23 13 7 4 27 57 48 24 24 266 308 267 258 240 210 198 197 164 155 156 157 166 192 192 169 195 162 147 148 135 140 126 129 138 133 133 129 131 127 124 131 148 148 144 143 126 151 152 151 145 181 184 155 149 135 136 134